Zurück zum Katalog

CZ-4 DEB

AktivSSO
NORAD 20913·DEBRIS·🇨🇳 China

Gestartet Sep 3, 1990 von Taiyuan Satellite Launch Center

Loading…

Nächste Überflüge (nächste 24 Stunden)

TLE

AktuellSource: Space-Track

Epoche: Sep 13, 2026, 21:50 UTC

1 20913U 90081BW  26256.90997127  .00000374  00000-0  21505-3 0  9998
2 20913  98.8868 242.3458 0099389 102.4415 287.8822 14.12621332844140

Verfolge CZ-4 DEB in Echtzeit mit AllMySat

Download on the App Store